Tracking 19288 objects as of 20-Nov-2018
HD Live streaming from Space Station
objects crossing your sky now

COSMOS 626

Track COSMOS 626 now!
10-day predictions
COSMOS 626 is classified as:


NORAD ID: 7005
Int'l Code: 1973-108A
Perigee: 917.8 km
Apogee: 986.4 km
Inclination: 65.4 °
Period: 103.9 minutes
Semi major axis: 7323 km
RCS: 3.2756 m2 (large)
Launch date: December 27, 1973
Source: Commonwealth of Independent States (former USSR) (CIS)
Launch site: TYURATAM MISSILE AND SPACE COMPLEX (TTMTR)
aabbcc
Your satellite tracking list
Your tracking list is empty




NASA's NSSDC Master Catalog

Two Line Element Set (TLE):
1  7005U 73108A   18324.20442757 -.00000080  00000-0  53229-5 0  9995
2  7005  65.4378 315.6379 0046837 155.2693 205.0632 13.85356711271727
Source of the keplerian elements: AFSPC